Flag for Germany Weather past 2 weeks in Göttingen, Lower Saxony, Germany

Now
41 °F

Overcast.


Feels Like: 38 °F
Forecast: 30 / 50 °F
Wind: 5 mph from South

Location: Kassel / Calden

Current Time: Mar 6, 2015 at 11:41:49 PM

Latest Report: Mar 6, 2015 at 9:50 PM


Visibility: N/A

Pressure: 30.54 "Hg

Humidity: 70%

Dew point: 32 °F

Location of GöttingenLocation

Historic Weather in Göttingen — Graph

°F

Göttingen temperature yesterday

Maximum temperature yesterday: 41 °F (at 12:50 PM)
Minimum temperature yesterday: 34 °F (at 6:20 AM)
Average temperature yesterday: 38 °F

Past Weeks' High & Low Weather Summary

 TemperatureHumidityPressure
High48 °F (Feb 20, 9:20 PM)100% (Feb 23, 8:50 AM)30.60 "Hg (Feb 23, 8:50 AM)
Low30 °F (Feb 19, 9:20 PM)42% (Mar 2, 3:50 PM)29.36 "Hg (Feb 21, 6:50 AM)
Average39 °F77%29.92 "Hg
* Reported Feb 19 9:20 PM — Mar 6 9:50 PM, Göttingen, Weather by CustomWeather, © 2015

Note: Actual official high and low records may vary slightly from our data, if they occured in-between our weather recording intervals... More about our weather records

Advertising

Göttingen weather history for previous 24 hours

 ConditionsComfort  
Time TempWeatherWind HumidityBarometerVisibility
9:50 PM
Fri, Mar 6
41 °FOvercast.5 mph70%30.54 "HgN/A
9:20 PM41 °FOvercast.6 mph70%30.54 "HgN/A
8:50 PM41 °FOvercast.5 mph70%30.54 "HgN/A
8:20 PM41 °FOvercast.8 mph70%30.54 "HgN/A
7:50 PM41 °FOvercast.7 mph70%30.54 "HgN/A
7:20 PM41 °FOvercast.7 mph76%30.57 "HgN/A
6:50 PM41 °FOvercast.9 mph76%30.54 "HgN/A
6:20 PM41 °FOvercast.8 mph76%30.54 "HgN/A
5:50 PM41 °FOvercast.6 mph76%30.54 "HgN/A
5:20 PM41 °FOvercast.7 mph76%30.54 "HgN/A
4:50 PM43 °FPartly sunny.8 mph71%30.54 "HgN/A
4:20 PM43 °FPartly sunny.10 mph71%30.54 "HgN/A
3:50 PM43 °FPartly sunny.9 mph71%30.54 "HgN/A
3:20 PM41 °FPartly sunny.8 mph76%30.54 "HgN/A
2:50 PM41 °FMore clouds than sun.6 mph76%30.54 "HgN/A
2:20 PM41 °FMore clouds than sun.6 mph76%30.54 "HgN/A
1:50 PM39 °FMostly cloudy.7 mph81%30.57 "HgN/A
1:20 PM41 °FOvercast.7 mph76%30.57 "HgN/A
12:50 PM39 °FOvercast.5 mph81%30.60 "HgN/A
12:20 PM37 °FOvercast.5 mph87%30.60 "HgN/A
11:50 AM36 °FOvercast.3 mph93%30.60 "Hg6 mi
11:20 AM36 °FOvercast.3 mph87%30.57 "Hg6 mi
10:50 AM36 °FOvercast.3 mph87%30.57 "Hg6 mi
10:20 AM34 °FOvercast.3 mph93%30.57 "Hg6 mi
9:50 AM34 °FOvercast.3 mph93%30.57 "Hg5 mi
9:20 AM34 °FOvercast.3 mph93%30.57 "Hg5 mi
8:50 AM34 °FOvercast.3 mph87%30.57 "Hg4 mi
8:20 AM32 °FOvercast.3 mph93%30.57 "Hg4 mi
7:50 AM32 °FOvercast.5 mph93%30.57 "Hg6 mi
7:20 AM32 °FPartly sunny.7 mph93%30.57 "HgN/A
6:20 AM30 °FPassing clouds.1 mph64%30.57 "Hg5 mi
5:50 AM30 °FPassing clouds.2 mph100%30.57 "Hg5 mi
Weather by CustomWeather, © 2015

See weather overviewHow to use our weather pages